This is the latest recevied weather packets stored in our database for station/object DJ4RO-13. If no packets are shown the sender has not sent any weather packets the latest 10 day(s).
| Time | Temp. | Humidity | Pressure | Rain* | Wind** | Luminosity | Snow |
|---|---|---|---|---|---|---|---|
| 1776903678 | 6.11° C | 76% | 1028.5 hPa | 0 mm | - | 0 W/m² | - |
| 1776903358 | 6.11° C | 76% | 1028.6 hPa | 0 mm | - | 0 W/m² | - |
| 1776903038 | 6.11° C | 75% | 1028.5 hPa | 0 mm | - | 0 W/m² | - |
| 1776902719 | 6.11° C | 75% | 1028.7 hPa | 0 mm | - | 0 W/m² | - |
| 1776902398 | 5.56° C | 77% | 1028.6 hPa | 0 mm | - | 0 W/m² | - |
| 1776902072 | 4.44° C | 79% | 1028.6 hPa | 0 mm | - | 0 W/m² | - |
| 1776901742 | 4.44° C | 81% | 1028.8 hPa | 0 mm | - | 0 W/m² | - |
| 1776901422 | 4.44° C | 82% | 1028.7 hPa | 0 mm | - | 0 W/m² | - |
| 1776901102 | 4.44° C | 83% | 1028.7 hPa | 0 mm | - | 0 W/m² | - |
| 1776900782 | 4.44° C | 80% | 1028.7 hPa | 0 mm | - | 0 W/m² | - |
| 1776900462 | 5° C | 80% | 1028.8 hPa | 0 mm | - | 0 W/m² | - |
| 1776900142 | 5° C | 78% | 1028.5 hPa | 0 mm | - | 0 W/m² | - |
| 1776899822 | 4.44° C | 78% | 1028.8 hPa | 0 mm | - | 0 W/m² | - |
| 1776899502 | 4.44° C | 81% | 1028.5 hPa | 0 mm | - | 0 W/m² | - |
| 1776899182 | 4.44° C | 80% | 1028.5 hPa | 0 mm | - | 0 W/m² | - |
| 1776898863 | 5° C | 81% | 1028.6 hPa | 0 mm | - | 0 W/m² | - |
| 1776898542 | 5° C | 78% | 1028.7 hPa | 0 mm | - | 0 W/m² | - |
| 1776898222 | 5.56° C | 77% | 1028.7 hPa | 0 mm | - | 0 W/m² | - |
| 1776897902 | 5.56° C | 75% | 1028.6 hPa | 0 mm | - | 0 W/m² | - |
| 1776897582 | 5.56° C | 75% | 1028.6 hPa | 0 mm | - | 0 W/m² | - |
| 1776897262 | 5.56° C | 77% | 1028.7 hPa | 0 mm | - | 0 W/m² | - |
| 1776896942 | 5.56° C | 75% | 1029 hPa | 0 mm | - | 0 W/m² | - |
| 1776896622 | 5.56° C | 75% | 1028.8 hPa | 0 mm | - | 0 W/m² | - |
| 1776896302 | 5.56° C | 75% | 1029 hPa | 0 mm | - | 0 W/m² | - |
| 1776895982 | 5.56° C | 76% | 1028.9 hPa | 0 mm | - | 0 W/m² | - |
* Rain latest hour (hover to see other rain measurements)
** Current wind speed in m/s (hover to see current wind gust speed)